[[{"header":{"parameterUnit":"m.s-1","parameterCategory":1,"la1":30.2992,"la2":30.254,"lo1":-89.0895,"lo2":-89.0443,"dy":0.0025,"dx":0.0025,"nx":19,"ny":19,"refTime":"2026-03-13T03:00:00:Z","depth":0,"parameterNumber":2,"parameterNumberName":"U-component_of_WINDS"},"data":[0,0,0,-4.0058,-4.0064,-4.0341,-4.0342,-4.0665,-4.0668,0,0,0,0,0,0,0,0,0,0,0,-3.9957,-3.9959,-4.0058,-4.0064,-4.0341,-4.0342,-4.0665,-4.0668,0,0,0,0,0,0,0,0,0,0,0,-3.9957,-3.9958,-3.996,-4.0065,-4.034,-4.0342,-4.0664,-4.0466,0,0,0,0,0,0,0,0,0,0,-4.0202,-4.0091,-3.9958,-3.996,-4.0067,-4.034,-4.0342,-4.0457,-4.0478,-4.0527,0,-4.0565,0,-4.0622,-4.0688,-4.0689,0,0,0,-4.0077,-4.0072,-4.0165,-3.9961,-4.0069,-4.034,-4.022,-4.0469,-4.0493,-4.0555,-4.057,-4.0583,-4.0627,-4.069,-4.0691,-4.0933,-4.0933,0,0,-4.0062,-3.9996,-4.0148,-4.018,-4.0136,-4.0211,-4.0228,-4.0484,-4.0496,-4.0572,-4.0591,-4.0633,-4.0692,-4.0694,-4.0933,-4.0933,0,0,0,-4.0009,-3.9984,-4.0072,-4.0166,-4.0218,-4.0218,-4.0238,-4.0484,-4.0519,-4.0595,-4.0636,-4.0693,-4.0697,-4.0932,-4.0933,-4.0895,0,0,0,-4.0001,-3.9954,-4.0064,-4.0026,-4.0213,-4.0355,-4.0232,-4.0501,-4.0532,-4.0635,-4.0693,-4.07,-4.0932,-4.0933,-4.0895,-4.0886,0,0,0,-3.9945,-3.9948,-3.9982,-4.0022,-4.014,-4.0352,-4.0401,-4.0509,-4.0557,-4.0689,-4.07,-4.0931,-4.0932,-4.0895,-4.0886,-4.0932,0,0,0,-3.9866,-3.994,-3.998,-4.008,-4.0137,-4.0328,-4.04,-4.0545,-4.0655,-4.0695,-4.0932,-4.0933,-4.0895,-4.0887,-4.0931,-4.0957,-4.0962,0,0,-3.9923,-3.9945,-4.0009,-4.0053,-4.0221,-4.0291,-4.0455,-4.0614,-4.0686,-4.0847,-4.0854,-4.0895,-4.0886,-4.0932,-4.1017,-4.102,0,0,0,-4.0005,-4.005,-4.0109,-4.0212,-4.034,-4.045,-4.0594,-4.0655,-4.0796,-4.0755,-4.0927,-4.0924,-4.0953,-4.0968,-4.0971,-4.1001,-4.0938,-4.0938,-4.0937,-3.9984,-4.0078,-4.0192,-4.032,-4.042,-4.0573,-4.0662,-4.0771,-4.083,-4.087,-4.0916,-4.0957,-4.0973,-4.0975,-4.1005,-4.094,-4.094,-4.094,-4.094,-4.0074,-4.0153,-4.0241,-4.0382,-4.0481,-4.0601,-4.0754,-4.0794,-4.092,-4.0928,-4.0959,-4.0956,-4.0976,-4.1007,-4.0938,-4.0938,-4.0939,-4.0939,-4.0939,-4.0069,-4.0124,-4.0201,-4.0366,-4.0483,-4.0612,-4.0731,-4.0817,-4.0898,-4.0929,-4.0988,-4.0989,-4.1,-4.0952,-4.0952,-4.0953,-4.0953,-4.0953,-4.0953,-4.0031,-4.0121,-4.0212,-4.0361,-4.0443,-4.0561,-4.0722,-4.0805,-4.0918,-4.0971,-4.0972,-4.1028,-4.0963,-4.0942,-4.0955,-4.0955,-4.0955,-4.0954,-4.0954,-4.0082,-4.0087,-4.0227,-4.0309,-4.0496,-4.0608,-4.072,-4.0883,-4.0964,-4.1021,-4.1076,-4.1014,-4.104,-4.1039,-4.1022,-4.1055,-4.1055,-4.1055,-4.1055,-4.0076,-4.0102,-4.0268,-4.0395,-4.053,-4.0648,-4.0805,-4.0935,-4.1067,-4.1124,-4.1134,-4.1121,-4.1116,-4.1146,-4.1142,-4.1128,-4.1187,-4.1187,-4.1188,-4.0113,-4.0157,-4.0273,-4.0407,-4.0562,-4.0693,-4.0845,-4.0988,-4.114,-4.1195,-4.1171,-4.1165,-4.1147,-4.1136,-4.1181,-4.1173,-4.115,0,0]},{"header":{"parameterUnit":"m.s-1","parameterCategory":1,"la1":30.2992,"la2":30.254,"lo1":-89.0895,"lo2":-89.0443,"dy":0.0025,"dx":0.0025,"nx":19,"ny":19,"refTime":"2026-03-13T03:00:00:Z","depth":0,"parameterNumber":3,"parameterNumberName":"V-component_of_WINDS"},"data":[0,0,0,3.3132,3.3135,3.3278,3.3278,3.3428,3.3429,0,0,0,0,0,0,0,0,0,0,0,3.3072,3.3072,3.3132,3.3135,3.3277,3.3278,3.3428,3.3429,0,0,0,0,0,0,0,0,0,0,0,3.3072,3.3072,3.3073,3.3135,3.3277,3.3278,3.3427,3.3331,0,0,0,0,0,0,0,0,0,0,3.3197,3.3125,3.3072,3.3073,3.3136,3.3277,3.3278,3.3326,3.3337,3.335,0,3.336,0,3.3397,3.3437,3.3438,0,0,0,3.3146,3.3117,3.3172,3.3073,3.3137,3.3277,3.3216,3.3333,3.3344,3.3363,3.3362,3.3369,3.34,3.3438,3.3439,3.3487,3.3487,0,0,3.3139,3.3087,3.3164,3.3179,3.3158,3.3212,3.3221,3.334,3.3334,3.3363,3.3373,3.3402,3.3439,3.344,3.3487,3.3487,0,0,0,3.3108,3.3081,3.3134,3.3172,3.32,3.3216,3.3226,3.3328,3.335,3.3374,3.3404,3.3439,3.3441,3.3488,3.3487,3.3423,0,0,0,3.3104,3.3063,3.313,3.3099,3.3197,3.3266,3.3211,3.3342,3.3357,3.3403,3.344,3.3442,3.3488,3.3487,3.3425,3.3399,0,0,0,3.3068,3.3059,3.3075,3.3096,3.3157,3.3266,3.3295,3.3347,3.3374,3.3438,3.3442,3.3489,3.3488,3.3428,3.3403,3.3398,0,0,0,3.3014,3.301,3.3073,3.308,3.3155,3.3227,3.3295,3.335,3.3396,3.344,3.3488,3.3487,3.3429,3.3405,3.34,3.3383,3.3371,0,0,3.298,3.3004,3.3014,3.3074,3.3122,3.3209,3.3247,3.3336,3.3387,3.345,3.3452,3.3425,3.3403,3.3398,3.3329,3.332,0,0,0,3.2985,3.2991,3.3015,3.306,3.3133,3.3192,3.3283,3.3317,3.3375,3.341,3.3424,3.3413,3.3412,3.3405,3.3398,3.34,3.3483,3.3483,3.3483,3.2857,3.293,3.2951,3.3041,3.3084,3.3182,3.3223,3.3285,3.3339,3.3342,3.3359,3.331,3.3301,3.3295,3.3297,3.3358,3.3358,3.3358,3.3358,3.2813,3.2832,3.2915,3.2964,3.304,3.308,3.3176,3.3215,3.3263,3.3301,3.3303,3.3336,3.3283,3.3288,3.3353,3.3354,3.3355,3.3355,3.3355,3.2735,3.2757,3.2805,3.2882,3.2934,3.3026,3.3071,3.3138,3.32,3.3203,3.323,3.3231,3.324,3.3212,3.3212,3.3212,3.3212,3.3212,3.3212,3.2634,3.269,3.2722,3.2805,3.2846,3.2909,3.3012,3.3053,3.3116,3.3161,3.3161,3.3215,3.3266,3.3276,3.3209,3.321,3.321,3.321,3.321,3.2556,3.2587,3.2635,3.2678,3.2784,3.2832,3.2921,3.3001,3.3045,3.3065,3.3123,3.3151,3.3177,3.3184,3.3193,3.3108,3.3108,3.3108,3.3108,3.2488,3.2512,3.258,3.2644,3.2715,3.2803,3.2855,3.2938,3.3026,3.3059,3.3082,3.31,3.3105,3.3129,3.3137,3.3146,3.3052,3.3052,3.3052,3.2444,3.248,3.2511,3.2605,3.2696,3.2771,3.2824,3.2892,3.2999,3.3051,3.3085,3.3088,3.3118,3.3125,3.317,3.3181,3.3199,0,0]}]]